Time,TemperatureF,DewpointF,PressureIn,WindDirection,WindDirectionDegrees,WindSpeedMPH,WindSpeedGustMPH,Humidity,HourlyPrecipIn,Conditions,Clouds,dailyrainin,SoftwareType,DateUTC
2013-05-21 00:00:00,69.6,69.3,30.02,SE,135,2.2,3.1,99,0.00,,,0.00,meteobridge,2013-05-21 04:00:00,
2013-05-21 00:01:00,69.6,69.3,30.03,ESE,113,3.8,3.8,99,0.00,,,0.00,meteobridge,2013-05-21 04:01:00,
2013-05-21 00:02:00,69.6,69.3,30.03,SE,135,3.8,3.8,99,0.00,,,0.00,meteobridge,2013-05-21 04:02:00,
2013-05-21 00:07:00,69.6,69.3,30.03,SE,135,3.1,3.1,99,0.00,,,0.00,meteobridge,2013-05-21 04:07:00,
2013-05-21 00:12:00,69.4,69.1,30.03,SE,135,1.6,3.8,99,0.00,,,0.00,meteobridge,2013-05-21 04:12:00,
2013-05-21 00:17:00,69.4,69.1,30.03,South,180,0.7,3.1,99,0.00,,,0.00,meteobridge,2013-05-21 04:17:00,
2013-05-21 00:22:00,69.4,69.1,30.02,SE,135,0.7,0.7,99,0.00,,,0.00,meteobridge,2013-05-21 04:22:00,
2013-05-21 00:27:00,69.4,69.1,30.03,SE,135,2.2,2.2,99,0.00,,,0.00,meteobridge,2013-05-21 04:27:00,
2013-05-21 00:33:00,69.4,69.1,30.03,SE,135,3.1,3.1,99,0.00,,,0.00,meteobridge,2013-05-21 04:33:00,
2013-05-21 00:38:00,69.4,69.1,30.03,SE,135,2.2,2.2,99,0.00,,,0.00,meteobridge,2013-05-21 04:38:00,
2013-05-21 00:43:00,69.6,69.3,30.03,SE,135,2.2,3.8,99,0.00,,,0.00,meteobridge,2013-05-21 04:43:00,
2013-05-21 00:48:00,69.6,69.3,30.03,East,90,3.1,3.1,99,0.00,,,0.00,meteobridge,2013-05-21 04:48:00,
2013-05-21 00:53:00,69.6,69.3,30.03,SE,135,2.2,3.8,99,0.00,,,0.00,meteobridge,2013-05-21 04:53:00,
2013-05-21 00:58:00,69.6,69.3,30.03,South,180,1.6,3.1,99,0.00,,,0.00,meteobridge,2013-05-21 04:58:00,
2013-05-21 01:04:00,69.6,69.3,30.03,South,180,5.4,5.4,99,0.00,,,0.00,meteobridge,2013-05-21 05:04:00,
2013-05-21 01:09:00,69.6,69.3,30.03,South,180,2.2,2.2,99,0.00,,,0.00,meteobridge,2013-05-21 05:09:00,
2013-05-21 01:14:00,69.6,69.3,30.02,SE,135,4.5,4.5,99,0.00,,,0.00,meteobridge,2013-05-21 05:14:00,
2013-05-21 01:19:00,69.6,69.3,30.02,South,180,3.1,4.5,99,0.00,,,0.00,meteobridge,2013-05-21 05:19:00,
2013-05-21 01:24:00,69.6,69.3,30.03,SE,135,5.4,5.4,99,0.00,,,0.00,meteobridge,2013-05-21 05:24:00,
2013-05-21 01:29:00,69.6,69.3,30.03,SE,135,2.2,3.8,99,0.00,,,0.00,meteobridge,2013-05-21 05:29:00,
2013-05-21 01:35:00,69.6,69.3,30.02,South,180,3.1,3.8,99,0.00,,,0.00,meteobridge,2013-05-21 05:35:00,
2013-05-21 01:40:00,69.6,69.3,30.02,SE,135,3.8,4.5,99,0.00,,,0.00,meteobridge,2013-05-21 05:40:00,
2013-05-21 01:45:00,69.6,69.3,30.02,SE,135,6.0,6.0,99,0.00,,,0.00,meteobridge,2013-05-21 05:45:00,
2013-05-21 01:50:00,69.6,69.3,30.02,SE,135,3.1,4.5,99,0.00,,,0.00,meteobridge,2013-05-21 05:50:00,
2013-05-21 01:55:00,69.6,69.3,30.01,East,90,4.5,6.0,99,0.00,,,0.00,meteobridge,2013-05-21 05:55:00,
2013-05-21 02:00:00,69.8,69.3,30.02,SE,135,3.1,3.1,98,0.00,,,0.00,meteobridge,2013-05-21 06:00:00,
2013-05-21 02:05:00,69.6,69.3,30.02,SE,135,3.8,3.8,99,0.00,,,0.00,meteobridge,2013-05-21 06:05:00,
2013-05-21 02:11:00,69.8,69.3,30.02,South,180,0.7,1.6,98,0.00,,,0.00,meteobridge,2013-05-21 06:11:00,
2013-05-21 02:16:00,69.8,69.3,30.02,SE,135,3.1,3.8,98,0.00,,,0.00,meteobridge,2013-05-21 06:16:00,
2013-05-21 02:21:00,69.8,69.3,30.02,South,180,0.7,2.2,98,0.00,,,0.00,meteobridge,2013-05-21 06:21:00,
2013-05-21 02:26:00,69.8,69.3,30.02,SE,135,3.1,3.1,98,0.00,,,0.00,meteobridge,2013-05-21 06:26:00,
2013-05-21 02:31:00,69.8,69.3,30.02,ESE,113,2.2,2.2,98,0.00,,,0.00,meteobridge,2013-05-21 06:31:00,
2013-05-21 02:36:00,69.8,69.3,30.02,SE,135,1.6,1.6,98,0.00,,,0.00,meteobridge,2013-05-21 06:36:00,
2013-05-21 02:42:00,69.8,69.3,30.02,SE,135,2.2,2.2,98,0.00,,,0.00,meteobridge,2013-05-21 06:42:00,
2013-05-21 02:47:00,69.8,69.3,30.02,SE,135,2.2,2.2,98,0.00,,,0.00,meteobridge,2013-05-21 06:47:00,
2013-05-21 02:52:00,69.8,69.3,30.02,East,90,3.1,3.1,98,0.00,,,0.00,meteobridge,2013-05-21 06:52:00,
2013-05-21 02:57:00,69.8,69.3,30.02,SE,135,2.2,3.1,98,0.00,,,0.00,meteobridge,2013-05-21 06:57:00,
2013-05-21 03:02:00,69.8,69.3,30.01,South,180,2.2,2.2,98,0.00,,,0.00,meteobridge,2013-05-21 07:02:00,
2013-05-21 03:07:00,69.8,69.3,30.01,South,180,1.6,2.2,98,0.00,,,0.00,meteobridge,2013-05-21 07:07:00,
2013-05-21 03:13:00,69.8,69.3,30.01,SE,135,1.6,1.6,98,0.00,,,0.00,meteobridge,2013-05-21 07:13:00,
2013-05-21 03:18:00,69.8,69.3,30.02,SE,135,3.8,3.8,98,0.00,,,0.00,meteobridge,2013-05-21 07:18:00,
2013-05-21 03:23:00,69.8,69.3,30.01,East,90,3.1,4.5,98,0.00,,,0.00,meteobridge,2013-05-21 07:23:00,
2013-05-21 03:28:00,69.8,69.3,30.01,SE,135,2.2,3.8,98,0.00,,,0.00,meteobridge,2013-05-21 07:28:00,
2013-05-21 03:33:00,69.8,69.3,30.01,South,180,3.8,3.8,98,0.00,,,0.00,meteobridge,2013-05-21 07:33:00,
2013-05-21 03:38:00,69.8,69.3,30.01,SE,135,1.6,2.2,98,0.00,,,0.00,meteobridge,2013-05-21 07:38:00,
2013-05-21 03:44:00,69.8,69.3,30.01,SE,135,2.2,2.2,98,0.00,,,0.00,meteobridge,2013-05-21 07:44:00,
2013-05-21 03:49:00,69.8,69.3,30.01,South,180,0.7,0.7,98,0.00,,,0.00,meteobridge,2013-05-21 07:49:00,
2013-05-21 03:54:00,69.8,69.3,30.01,South,180,1.6,3.1,98,0.00,,,0.00,meteobridge,2013-05-21 07:54:00,
2013-05-21 03:59:00,69.8,69.3,30.01,East,90,1.6,2.2,98,0.00,,,0.00,meteobridge,2013-05-21 07:59:00,
2013-05-21 04:04:00,69.8,69.3,30.01,South,180,3.1,3.1,98,0.00,,,0.00,meteobridge,2013-05-21 08:04:00,
2013-05-21 04:09:00,69.8,69.3,30.01,SE,135,2.2,2.2,98,0.00,,,0.00,meteobridge,2013-05-21 08:09:00,
2013-05-21 04:15:00,69.8,69.3,30.01,SSE,158,1.6,2.2,98,0.00,,,0.00,meteobridge,2013-05-21 08:15:00,
2013-05-21 04:20:00,69.8,69.3,30.01,South,180,2.2,2.2,98,0.00,,,0.00,meteobridge,2013-05-21 08:20:00,
2013-05-21 04:25:00,69.8,69.3,30.01,South,180,1.6,1.6,98,0.00,,,0.00,meteobridge,2013-05-21 08:25:00,
2013-05-21 04:30:00,69.8,69.3,30.01,SE,135,0.7,1.6,98,0.00,,,0.00,meteobridge,2013-05-21 08:30:00,
2013-05-21 04:35:00,69.8,69.3,30.01,SE,135,1.6,1.6,98,0.00,,,0.00,meteobridge,2013-05-21 08:35:00,
2013-05-21 04:40:00,69.8,69.3,30.01,South,180,1.6,1.6,98,0.00,,,0.00,meteobridge,2013-05-21 08:40:00,
2013-05-21 04:46:00,69.8,69.3,30.01,SE,135,1.6,1.6,98,0.00,,,0.00,meteobridge,2013-05-21 08:46:00,
2013-05-21 04:51:00,69.8,69.3,30.01,SE,135,1.6,1.6,98,0.00,,,0.00,meteobridge,2013-05-21 08:51:00,
2013-05-21 04:56:00,69.6,69.3,30.01,SE,135,1.6,2.2,99,0.00,,,0.00,meteobridge,2013-05-21 08:56:00,
2013-05-21 05:01:00,69.6,69.3,30.02,South,180,1.6,1.6,99,0.00,,,0.00,meteobridge,2013-05-21 09:01:00,
2013-05-21 05:06:00,69.6,69.3,30.02,SE,135,2.2,2.2,99,0.00,,,0.00,meteobridge,2013-05-21 09:06:00,
2013-05-21 05:11:00,69.6,69.3,30.02,SE,135,2.2,2.2,99,0.00,,,0.00,meteobridge,2013-05-21 09:11:00,
2013-05-21 05:17:00,69.6,69.3,30.02,South,180,0.7,1.6,99,0.00,,,0.00,meteobridge,2013-05-21 09:17:00,
2013-05-21 05:22:00,69.6,69.3,30.02,South,180,1.6,1.6,99,0.00,,,0.00,meteobridge,2013-05-21 09:22:00,
2013-05-21 05:27:00,69.8,69.3,30.02,SW,225,0.7,2.2,98,0.00,,,0.00,meteobridge,2013-05-21 09:27:00,
2013-05-21 05:32:00,69.8,69.3,30.02,SW,225,1.6,3.1,98,0.00,,,0.00,meteobridge,2013-05-21 09:32:00,
2013-05-21 05:37:00,70.0,69.4,30.03,SW,225,3.1,3.8,98,0.00,,,0.00,meteobridge,2013-05-21 09:37:00,
2013-05-21 05:42:00,70.0,69.4,30.03,South,180,1.6,3.8,98,0.00,,,0.00,meteobridge,2013-05-21 09:42:00,
2013-05-21 05:48:00,70.0,69.4,30.03,South,180,0.7,2.2,98,0.00,,,0.00,meteobridge,2013-05-21 09:48:00,
2013-05-21 05:53:00,70.0,69.4,30.03,South,180,1.6,2.2,98,0.00,,,0.00,meteobridge,2013-05-21 09:53:00,
2013-05-21 05:58:00,70.0,69.1,30.03,South,180,0.0,0.0,97,0.00,,,0.00,meteobridge,2013-05-21 09:58:00,
2013-05-21 06:03:00,70.0,69.1,30.03,SE,135,0.7,0.7,97,0.00,,,0.00,meteobridge,2013-05-21 10:03:00,
2013-05-21 06:08:00,70.0,69.1,30.03,SE,135,0.7,0.7,97,0.00,,,0.00,meteobridge,2013-05-21 10:08:00,
2013-05-21 06:13:00,70.0,69.1,30.03,SE,135,2.2,2.2,97,0.00,,,0.00,meteobridge,2013-05-21 10:13:00,
2013-05-21 06:19:00,69.8,68.9,30.03,SE,135,2.2,2.2,97,0.00,,,0.00,meteobridge,2013-05-21 10:19:00,
2013-05-21 06:24:00,69.8,68.9,30.04,SW,225,1.6,2.2,97,0.00,,,0.00,meteobridge,2013-05-21 10:24:00,
2013-05-21 06:29:00,70.0,69.1,30.04,SE,135,0.7,1.6,97,0.00,,,0.00,meteobridge,2013-05-21 10:29:00,
2013-05-21 06:34:00,70.0,69.1,30.04,SE,135,3.1,3.1,97,0.00,,,0.00,meteobridge,2013-05-21 10:34:00,
2013-05-21 06:39:00,70.0,69.1,30.05,SE,135,0.7,3.1,97,0.00,,,0.00,meteobridge,2013-05-21 10:39:00,
2013-05-21 06:45:00,70.0,69.1,30.04,SE,135,1.6,1.6,97,0.00,,,0.00,meteobridge,2013-05-21 10:45:00,
2013-05-21 06:50:00,69.8,69.3,30.04,SE,135,2.2,2.2,98,0.00,,,0.00,meteobridge,2013-05-21 10:50:00,
2013-05-21 06:55:00,69.8,69.3,30.04,South,180,2.2,2.2,98,0.00,,,0.00,meteobridge,2013-05-21 10:55:00,
2013-05-21 07:00:00,70.0,69.4,30.05,South,180,1.6,2.2,98,0.00,,,0.00,meteobridge,2013-05-21 11:00:00,
2013-05-21 07:05:00,70.0,69.4,30.05,South,180,3.1,3.8,98,0.00,,,0.00,meteobridge,2013-05-21 11:05:00,
2013-05-21 07:10:00,70.0,69.4,30.04,SE,135,2.2,2.2,98,0.00,,,0.00,meteobridge,2013-05-21 11:10:00,
2013-05-21 07:16:00,70.2,69.3,30.05,SE,135,1.6,1.6,97,0.00,,,0.00,meteobridge,2013-05-21 11:16:00,
2013-05-21 07:21:00,70.2,69.3,30.04,South,180,3.1,3.1,97,0.00,,,0.00,meteobridge,2013-05-21 11:21:00,
2013-05-21 07:26:00,70.2,69.3,30.04,East,90,4.5,4.5,97,0.00,,,0.00,meteobridge,2013-05-21 11:26:00,
2013-05-21 07:31:00,70.2,69.3,30.05,East,90,2.2,4.5,97,0.00,,,0.00,meteobridge,2013-05-21 11:31:00,
2013-05-21 07:36:00,70.2,69.3,30.05,SE,135,2.2,4.5,97,0.00,,,0.00,meteobridge,2013-05-21 11:36:00,
2013-05-21 07:41:00,70.3,69.4,30.05,East,90,3.8,3.8,97,0.00,,,0.00,meteobridge,2013-05-21 11:41:00,
2013-05-21 07:47:00,70.2,69.3,30.05,South,180,3.1,3.8,97,0.00,,,0.00,meteobridge,2013-05-21 11:47:00,
2013-05-21 07:52:00,70.3,69.4,30.04,SE,135,3.1,3.8,97,0.00,,,0.00,meteobridge,2013-05-21 11:52:00,
2013-05-21 07:57:00,70.2,69.3,30.05,ENE,68,3.1,3.8,97,0.01,,,0.01,meteobridge,2013-05-21 11:57:00,
2013-05-21 08:02:00,70.2,69.3,30.04,South,180,2.2,3.1,97,0.01,,,0.01,meteobridge,2013-05-21 12:02:00,
2013-05-21 08:07:00,70.2,69.3,30.05,SE,135,2.2,4.5,97,0.01,,,0.01,meteobridge,2013-05-21 12:07:00,
2013-05-21 08:12:00,70.2,69.3,30.05,South,180,3.1,3.1,97,0.01,,,0.01,meteobridge,2013-05-21 12:12:00,
2013-05-21 08:18:00,70.2,69.6,30.05,East,90,3.1,4.5,98,0.01,,,0.01,meteobridge,2013-05-21 12:18:00,
2013-05-21 08:23:00,70.3,69.4,30.05,SE,135,3.8,5.4,97,0.01,,,0.01,meteobridge,2013-05-21 12:23:00,
2013-05-21 08:28:00,70.3,69.4,30.05,SE,135,1.6,3.1,97,0.01,,,0.01,meteobridge,2013-05-21 12:28:00,
2013-05-21 08:33:00,70.5,69.6,30.06,East,90,2.2,4.5,97,0.01,,,0.01,meteobridge,2013-05-21 12:33:00,
2013-05-21 08:38:00,70.7,69.8,30.06,South,180,2.2,2.2,97,0.01,,,0.01,meteobridge,2013-05-21 12:38:00,
2013-05-21 08:43:00,70.9,70.0,30.05,South,180,2.2,3.8,97,0.01,,,0.01,meteobridge,2013-05-21 12:43:00,
2013-05-21 08:49:00,70.7,69.8,30.05,West,270,1.6,2.2,97,0.01,,,0.01,meteobridge,2013-05-21 12:49:00,
2013-05-21 08:54:00,70.7,69.4,30.06,SSE,158,3.8,3.8,96,0.00,,,0.01,meteobridge,2013-05-21 12:54:00,
2013-05-21 08:59:00,70.9,69.6,30.05,SE,135,1.6,1.6,96,0.00,,,0.01,meteobridge,2013-05-21 12:59:00,
2013-05-21 09:04:00,70.9,69.6,30.05,SW,225,3.1,3.8,96,0.00,,,0.01,meteobridge,2013-05-21 13:04:00,
2013-05-21 09:09:00,71.2,70.0,30.06,South,180,1.6,2.2,96,0.00,,,0.01,meteobridge,2013-05-21 13:09:00,
2013-05-21 09:14:00,71.4,70.2,30.06,West,270,4.5,4.5,96,0.00,,,0.01,meteobridge,2013-05-21 13:14:00,
2013-05-21 09:20:00,71.2,69.8,30.06,South,180,2.2,3.8,95,0.01,,,0.02,meteobridge,2013-05-21 13:20:00,
2013-05-21 09:25:00,71.8,70.3,30.06,South,180,3.8,3.8,95,0.01,,,0.02,meteobridge,2013-05-21 13:25:00,
2013-05-21 09:30:00,71.6,69.4,30.06,South,180,3.8,4.5,93,0.01,,,0.02,meteobridge,2013-05-21 13:30:00,
2013-05-21 09:35:00,71.6,69.8,30.05,South,180,2.2,3.1,94,0.01,,,0.02,meteobridge,2013-05-21 13:35:00,
2013-05-21 09:40:00,71.8,70.0,30.05,SW,225,2.2,4.5,94,0.01,,,0.02,meteobridge,2013-05-21 13:40:00,
2013-05-21 09:45:00,72.1,70.0,30.05,SW,225,2.2,4.5,93,0.01,,,0.02,meteobridge,2013-05-21 13:45:00,
2013-05-21 09:51:00,73.4,72.0,30.05,SW,225,3.8,3.8,95,0.01,,,0.02,meteobridge,2013-05-21 13:51:00,
2013-05-21 09:56:00,74.5,72.0,30.05,West,270,5.4,5.4,92,0.01,,,0.02,meteobridge,2013-05-21 13:56:00,
2013-05-21 10:01:00,73.9,70.5,30.05,SW,225,6.0,6.0,89,0.01,,,0.02,meteobridge,2013-05-21 14:01:00,
2013-05-21 10:06:00,74.1,71.1,30.05,West,270,6.0,6.9,90,0.01,,,0.02,meteobridge,2013-05-21 14:06:00,
2013-05-21 10:11:00,74.5,70.7,30.05,South,180,4.5,7.6,88,0.01,,,0.02,meteobridge,2013-05-21 14:11:00,
2013-05-21 10:16:00,74.1,70.0,30.05,SE,135,3.1,3.1,87,0.00,,,0.02,meteobridge,2013-05-21 14:16:00,
2013-05-21 10:22:00,74.7,70.5,30.05,South,180,5.4,6.9,87,0.00,,,0.02,meteobridge,2013-05-21 14:22:00,
2013-05-21 10:27:00,74.5,70.3,30.05,ESE,113,2.2,3.8,87,0.00,,,0.02,meteobridge,2013-05-21 14:27:00,
2013-05-21 10:32:00,75.4,70.9,30.05,SW,225,3.8,4.5,86,0.00,,,0.02,meteobridge,2013-05-21 14:32:00,
2013-05-21 10:37:00,75.9,71.4,30.05,SW,225,3.8,3.8,86,0.00,,,0.02,meteobridge,2013-05-21 14:37:00,
2013-05-21 10:42:00,77.4,71.8,30.05,SE,135,4.5,4.5,83,0.00,,,0.02,meteobridge,2013-05-21 14:42:00,
2013-05-21 10:47:00,78.3,71.2,30.05,SE,135,6.0,6.0,79,0.00,,,0.02,meteobridge,2013-05-21 14:47:00,
2013-05-21 10:53:00,79.7,71.4,30.05,East,90,6.0,6.0,76,0.00,,,0.02,meteobridge,2013-05-21 14:53:00,
2013-05-21 10:58:00,81.0,72.0,30.05,SSW,203,3.1,4.5,74,0.00,,,0.02,meteobridge,2013-05-21 14:58:00,
2013-05-21 11:03:00,81.9,71.1,30.05,SW,225,6.0,6.0,70,0.00,,,0.02,meteobridge,2013-05-21 15:03:00,
2013-05-21 11:08:00,80.4,70.5,30.05,SW,225,6.9,6.9,72,0.00,,,0.02,meteobridge,2013-05-21 15:08:00,
2013-05-21 11:13:00,80.6,70.7,30.05,SSW,203,4.5,8.3,72,0.00,,,0.02,meteobridge,2013-05-21 15:13:00,
2013-05-21 11:18:00,80.6,70.7,30.05,SE,135,3.1,3.8,72,0.00,,,0.02,meteobridge,2013-05-21 15:18:00,
2013-05-21 11:24:00,82.8,71.6,30.05,South,180,4.5,4.5,69,0.00,,,0.02,meteobridge,2013-05-21 15:24:00,
2013-05-21 11:29:00,82.8,70.2,30.05,South,180,5.4,8.3,66,0.00,,,0.02,meteobridge,2013-05-21 15:29:00,
2013-05-21 11:34:00,83.3,71.6,30.05,SE,135,5.4,7.6,68,0.00,,,0.02,meteobridge,2013-05-21 15:34:00,
2013-05-21 11:39:00,83.3,70.7,30.05,ESE,113,3.1,6.0,66,0.00,,,0.02,meteobridge,2013-05-21 15:39:00,
2013-05-21 11:44:00,84.9,71.8,30.05,South,180,4.5,4.5,65,0.00,,,0.02,meteobridge,2013-05-21 15:44:00,
2013-05-21 11:49:00,84.9,70.9,30.04,NW,315,3.8,6.9,63,0.00,,,0.02,meteobridge,2013-05-21 15:49:00,
2013-05-21 11:55:00,84.4,70.9,30.04,South,180,4.5,8.3,64,0.00,,,0.02,meteobridge,2013-05-21 15:55:00,
2013-05-21 12:00:00,83.5,70.9,30.04,South,180,4.5,4.5,66,0.00,,,0.02,meteobridge,2013-05-21 16:00:00,
2013-05-21 12:05:00,82.4,70.7,30.04,South,180,6.9,6.9,68,0.00,,,0.02,meteobridge,2013-05-21 16:05:00,
2013-05-21 12:10:00,82.0,71.2,30.04,SW,225,6.9,7.6,70,0.00,,,0.02,meteobridge,2013-05-21 16:10:00,
2013-05-21 12:15:00,82.0,71.8,30.03,SW,225,8.3,9.2,71,0.00,,,0.02,meteobridge,2013-05-21 16:15:00,
2013-05-21 12:20:00,83.3,71.6,30.03,SE,135,5.4,6.0,68,0.00,,,0.02,meteobridge,2013-05-21 16:20:00,
2013-05-21 12:26:00,83.3,71.2,30.03,SE,135,3.8,3.8,67,0.00,,,0.02,meteobridge,2013-05-21 16:26:00,
2013-05-21 12:31:00,83.7,71.6,30.03,East,90,8.3,8.3,67,0.00,,,0.02,meteobridge,2013-05-21 16:31:00,
2013-05-21 12:36:00,82.0,71.8,30.02,South,180,4.5,4.5,71,0.00,,,0.02,meteobridge,2013-05-21 16:36:00,
2013-05-21 12:41:00,82.9,71.2,30.02,SE,135,4.5,5.4,68,0.00,,,0.02,meteobridge,2013-05-21 16:41:00,
2013-05-21 12:46:00,82.4,70.3,30.02,South,180,6.9,9.8,67,0.00,,,0.02,meteobridge,2013-05-21 16:46:00,
2013-05-21 12:52:00,81.7,70.9,30.02,SSW,203,5.4,9.8,70,0.00,,,0.02,meteobridge,2013-05-21 16:52:00,
2013-05-21 12:57:00,81.7,71.4,30.01,West,270,4.5,7.6,71,0.00,,,0.02,meteobridge,2013-05-21 16:57:00,
2013-05-21 13:02:00,82.2,71.4,30.01,South,180,5.4,5.4,70,0.00,,,0.02,meteobridge,2013-05-21 17:02:00,
2013-05-21 13:07:00,82.0,70.9,30.01,South,180,3.8,7.6,69,0.00,,,0.02,meteobridge,2013-05-21 17:07:00,
2013-05-21 13:12:00,84.4,71.8,30.01,South,180,5.4,5.4,66,0.00,,,0.02,meteobridge,2013-05-21 17:12:00,
2013-05-21 13:17:00,85.8,72.1,30.00,WSW,248,9.8,9.8,64,0.00,,,0.02,meteobridge,2013-05-21 17:17:00,
2013-05-21 13:23:00,84.9,71.8,30.00,SW,225,7.6,7.6,65,0.00,,,0.02,meteobridge,2013-05-21 17:23:00,
2013-05-21 13:28:00,84.4,70.9,29.99,South,180,8.3,8.3,64,0.00,,,0.02,meteobridge,2013-05-21 17:28:00,
2013-05-21 13:33:00,85.1,69.6,30.00,SW,225,7.6,10.7,60,0.00,,,0.02,meteobridge,2013-05-21 17:33:00,
2013-05-21 13:38:00,85.3,69.8,29.99,East,90,8.3,8.3,60,0.00,,,0.02,meteobridge,2013-05-21 17:38:00,
2013-05-21 13:43:00,86.4,70.9,30.00,South,180,6.9,6.9,60,0.00,,,0.02,meteobridge,2013-05-21 17:43:00,
2013-05-21 13:48:00,86.0,70.5,30.00,South,180,6.9,7.6,60,0.00,,,0.02,meteobridge,2013-05-21 17:48:00,
2013-05-21 13:54:00,86.0,70.5,30.00,SSE,158,8.3,8.3,60,0.00,,,0.02,meteobridge,2013-05-21 17:54:00,
2013-05-21 13:59:00,84.9,70.9,30.00,South,180,6.0,6.9,63,0.00,,,0.02,meteobridge,2013-05-21 17:59:00,
2013-05-21 14:04:00,86.2,72.1,30.00,South,180,6.0,6.0,63,0.00,,,0.02,meteobridge,2013-05-21 18:04:00,
2013-05-21 14:09:00,87.3,71.2,30.00,SW,225,6.9,6.9,59,0.00,,,0.02,meteobridge,2013-05-21 18:09:00,
2013-05-21 14:14:00,84.9,70.5,30.00,SW,225,3.8,4.5,62,0.00,,,0.02,meteobridge,2013-05-21 18:14:00,
2013-05-21 14:19:00,84.4,70.9,29.99,SE,135,3.1,3.8,64,0.00,,,0.02,meteobridge,2013-05-21 18:19:00,
2013-05-21 14:25:00,84.9,71.4,29.99,SW,225,2.2,3.1,64,0.00,,,0.02,meteobridge,2013-05-21 18:25:00,
2013-05-21 14:30:00,86.2,71.1,29.99,SW,225,7.6,7.6,61,0.00,,,0.02,meteobridge,2013-05-21 18:30:00,
2013-05-21 14:35:00,85.8,71.2,29.99,NW,315,6.9,9.2,62,0.00,,,0.02,meteobridge,2013-05-21 18:35:00,
2013-05-21 14:40:00,84.2,70.7,29.98,SE,135,6.0,8.3,64,0.00,,,0.02,meteobridge,2013-05-21 18:40:00,
2013-05-21 14:45:00,86.2,71.6,29.98,SW,225,6.0,6.0,62,0.00,,,0.02,meteobridge,2013-05-21 18:45:00,
2013-05-21 14:50:00,87.8,72.1,29.98,SE,135,4.5,4.5,60,0.00,,,0.02,meteobridge,2013-05-21 18:50:00,
2013-05-21 14:56:00,88.5,70.3,29.98,SW,225,6.9,8.3,55,0.00,,,0.02,meteobridge,2013-05-21 18:56:00,
2013-05-21 15:01:00,87.4,70.9,29.98,SW,225,9.2,9.2,58,0.00,,,0.02,meteobridge,2013-05-21 19:01:00,
2013-05-21 15:06:00,87.4,71.8,29.98,SW,225,3.8,3.8,60,0.00,,,0.02,meteobridge,2013-05-21 19:06:00,
2013-05-21 15:11:00,88.2,70.5,29.97,SW,225,5.4,7.6,56,0.00,,,0.02,meteobridge,2013-05-21 19:11:00,
2013-05-21 15:16:00,85.6,71.1,29.97,South,180,6.0,7.6,62,0.00,,,0.02,meteobridge,2013-05-21 19:16:00,
2013-05-21 15:21:00,84.7,71.2,29.96,SW,225,3.8,5.4,64,0.00,,,0.02,meteobridge,2013-05-21 19:21:00,
2013-05-21 15:27:00,84.7,72.1,29.96,West,270,5.4,5.4,66,0.00,,,0.02,meteobridge,2013-05-21 19:27:00,
2013-05-21 15:32:00,82.9,73.0,29.96,NW,315,3.8,5.4,72,0.01,,,0.04,meteobridge,2013-05-21 19:32:00,
2013-05-21 15:37:00,82.9,73.0,29.96,WNW,293,3.8,4.5,72,0.01,,,0.04,meteobridge,2013-05-21 19:37:00,
2013-05-21 15:42:00,84.6,75.0,29.96,North,0,2.2,3.1,73,0.01,,,0.04,meteobridge,2013-05-21 19:42:00,
2013-05-21 15:47:00,87.1,75.2,29.96,NW,315,0.7,1.6,68,0.01,,,0.04,meteobridge,2013-05-21 19:47:00,
2013-05-21 15:52:00,87.8,73.2,29.96,West,270,3.8,3.8,62,0.01,,,0.04,meteobridge,2013-05-21 19:52:00,
2013-05-21 15:58:00,87.8,74.5,29.95,NW,315,1.6,2.2,65,0.01,,,0.04,meteobridge,2013-05-21 19:58:00,
2013-05-21 16:03:00,90.7,73.4,29.96,West,270,1.6,2.2,57,0.01,,,0.04,meteobridge,2013-05-21 20:03:00,
2013-05-21 16:08:00,91.8,73.8,29.96,West,270,0.7,1.6,56,0.01,,,0.04,meteobridge,2013-05-21 20:08:00,
2013-05-21 16:13:00,92.7,73.6,29.96,NW,315,1.6,1.6,54,0.01,,,0.04,meteobridge,2013-05-21 20:13:00,
2013-05-21 16:18:00,93.6,73.2,29.96,West,270,1.6,1.6,52,0.01,,,0.04,meteobridge,2013-05-21 20:18:00,
2013-05-21 16:23:00,92.7,73.0,29.95,NW,315,0.7,0.7,53,0.01,,,0.04,meteobridge,2013-05-21 20:23:00,
2013-05-21 16:29:00,91.4,72.3,29.95,SW,225,0.7,1.6,54,0.00,,,0.04,meteobridge,2013-05-21 20:29:00,
2013-05-21 16:34:00,88.0,70.9,29.95,SE,135,2.2,4.5,57,0.00,,,0.04,meteobridge,2013-05-21 20:34:00,
2013-05-21 16:39:00,86.4,72.3,29.95,SE,135,2.2,3.8,63,0.00,,,0.04,meteobridge,2013-05-21 20:39:00,
2013-05-21 16:44:00,85.6,73.9,29.95,SE,135,3.1,3.1,68,0.00,,,0.04,meteobridge,2013-05-21 20:44:00,
2013-05-21 16:49:00,84.0,72.0,29.95,South,180,7.6,10.7,67,0.00,,,0.04,meteobridge,2013-05-21 20:49:00,
2013-05-21 16:54:00,82.4,71.6,29.95,SE,135,9.2,9.2,70,0.00,,,0.04,meteobridge,2013-05-21 20:54:00,
2013-05-21 17:00:00,81.9,72.0,29.95,SE,135,6.0,9.8,72,0.00,,,0.04,meteobridge,2013-05-21 21:00:00,
2013-05-21 17:05:00,81.5,72.0,29.96,SE,135,5.4,6.9,73,0.00,,,0.04,meteobridge,2013-05-21 21:05:00,
2013-05-21 17:10:00,81.7,73.0,29.95,South,180,5.4,5.4,75,0.00,,,0.04,meteobridge,2013-05-21 21:10:00,
2013-05-21 17:15:00,81.9,72.7,29.95,East,90,6.0,6.0,74,0.00,,,0.04,meteobridge,2013-05-21 21:15:00,
2013-05-21 17:20:00,81.5,72.0,29.96,SE,135,9.8,9.8,73,0.00,,,0.04,meteobridge,2013-05-21 21:20:00,
2013-05-21 17:25:00,82.4,71.6,29.95,South,180,9.2,9.2,70,0.00,,,0.04,meteobridge,2013-05-21 21:25:00,
2013-05-21 17:31:00,82.2,72.0,29.94,South,180,9.2,9.2,71,0.00,,,0.04,meteobridge,2013-05-21 21:31:00,
2013-05-21 17:36:00,82.4,72.0,29.95,South,180,6.0,7.6,71,0.00,,,0.04,meteobridge,2013-05-21 21:36:00,
2013-05-21 17:41:00,82.8,72.3,29.95,East,90,6.0,7.6,71,0.00,,,0.04,meteobridge,2013-05-21 21:41:00,
2013-05-21 17:46:00,83.5,72.7,29.95,SE,135,4.5,8.3,70,0.00,,,0.04,meteobridge,2013-05-21 21:46:00,
2013-05-21 17:51:00,82.8,72.3,29.95,South,180,4.5,8.3,71,0.00,,,0.04,meteobridge,2013-05-21 21:51:00,
2013-05-21 17:56:00,82.8,72.3,29.95,East,90,9.2,9.2,71,0.00,,,0.04,meteobridge,2013-05-21 21:56:00,
2013-05-21 18:02:00,82.8,72.0,29.95,South,180,9.8,13.6,70,0.00,,,0.04,meteobridge,2013-05-21 22:02:00,
2013-05-21 18:07:00,82.2,72.3,29.95,South,180,11.4,11.4,72,0.00,,,0.04,meteobridge,2013-05-21 22:07:00,
2013-05-21 18:12:00,82.0,72.1,29.95,SE,135,8.3,13.0,72,0.00,,,0.04,meteobridge,2013-05-21 22:12:00,
2013-05-21 18:17:00,81.5,71.6,29.95,South,180,8.3,8.3,72,0.00,,,0.04,meteobridge,2013-05-21 22:17:00,
2013-05-21 18:22:00,81.7,72.1,29.95,North,0,13.0,13.0,73,0.00,,,0.04,meteobridge,2013-05-21 22:22:00,
2013-05-21 18:28:00,81.0,72.0,29.95,East,90,9.2,9.2,74,0.00,,,0.04,meteobridge,2013-05-21 22:28:00,
2013-05-21 18:33:00,80.6,72.0,29.95,SE,135,8.3,10.7,75,0.00,,,0.04,meteobridge,2013-05-21 22:33:00,
2013-05-21 18:38:00,80.2,72.0,29.95,South,180,7.6,10.7,76,0.00,,,0.04,meteobridge,2013-05-21 22:38:00,
2013-05-21 18:43:00,81.0,72.0,29.95,East,90,8.3,8.3,74,0.00,,,0.04,meteobridge,2013-05-21 22:43:00,
2013-05-21 18:48:00,81.9,72.3,29.96,South,180,6.9,6.9,73,0.00,,,0.04,meteobridge,2013-05-21 22:48:00,
2013-05-21 18:53:00,81.1,70.9,29.95,South,180,5.4,11.4,71,0.00,,,0.04,meteobridge,2013-05-21 22:53:00,
2013-05-21 18:59:00,80.8,70.9,29.95,South,180,4.5,6.9,72,0.00,,,0.04,meteobridge,2013-05-21 22:59:00,
2013-05-21 19:04:00,80.8,71.2,29.95,South,180,4.5,4.5,73,0.00,,,0.04,meteobridge,2013-05-21 23:04:00,
2013-05-21 19:09:00,80.8,70.9,29.95,South,180,3.1,6.0,72,0.00,,,0.04,meteobridge,2013-05-21 23:09:00,
2013-05-21 19:14:00,80.8,70.9,29.95,SE,135,6.0,6.0,72,0.00,,,0.04,meteobridge,2013-05-21 23:14:00,
2013-05-21 19:19:00,80.4,71.4,29.95,SE,135,5.4,5.4,74,0.00,,,0.04,meteobridge,2013-05-21 23:19:00,
2013-05-21 19:24:00,80.4,71.4,29.96,East,90,4.5,4.5,74,0.00,,,0.04,meteobridge,2013-05-21 23:24:00,
2013-05-21 19:30:00,80.8,71.2,29.95,SE,135,2.2,5.4,73,0.00,,,0.04,meteobridge,2013-05-21 23:30:00,
2013-05-21 19:35:00,79.5,70.9,29.95,SSE,158,3.1,4.5,75,0.00,,,0.04,meteobridge,2013-05-21 23:35:00,
2013-05-21 19:40:00,78.4,71.1,29.95,SSE,158,3.1,3.1,78,0.00,,,0.04,meteobridge,2013-05-21 23:40:00,
2013-05-21 19:45:00,77.7,71.4,29.95,East,90,6.0,6.0,81,0.00,,,0.04,meteobridge,2013-05-21 23:45:00,
2013-05-21 19:50:00,77.0,71.4,29.95,East,90,3.1,6.9,83,0.00,,,0.04,meteobridge,2013-05-21 23:50:00,
2013-05-21 19:55:00,76.6,71.4,29.95,SE,135,3.1,3.1,84,0.00,,,0.04,meteobridge,2013-05-21 23:55:00,
2013-05-21 20:01:00,76.1,71.2,29.94,SE,135,4.5,6.0,85,0.00,,,0.00,meteobridge,2013-05-22 00:01:00,
2013-05-21 20:06:00,75.4,70.9,29.94,SE,135,2.2,5.4,86,0.00,,,0.00,meteobridge,2013-05-22 00:06:00,
2013-05-21 20:11:00,74.8,71.1,29.94,South,180,3.1,3.1,88,0.00,,,0.00,meteobridge,2013-05-22 00:11:00,
2013-05-21 20:16:00,74.5,71.1,29.95,South,180,3.8,3.8,89,0.00,,,0.00,meteobridge,2013-05-22 00:16:00,
2013-05-21 20:21:00,74.1,71.1,29.95,SSE,158,3.1,3.8,90,0.00,,,0.00,meteobridge,2013-05-22 00:21:00,
2013-05-21 20:26:00,73.9,70.9,29.95,South,180,3.1,5.4,90,0.00,,,0.00,meteobridge,2013-05-22 00:26:00,
2013-05-21 20:32:00,73.8,70.9,29.94,East,90,4.5,4.5,91,0.00,,,0.00,meteobridge,2013-05-22 00:32:00,
2013-05-21 20:37:00,73.4,70.5,29.95,SE,135,3.8,6.0,91,0.00,,,0.00,meteobridge,2013-05-22 00:37:00,
2013-05-21 20:42:00,73.2,70.5,29.95,SSE,158,3.1,4.5,91,0.00,,,0.00,meteobridge,2013-05-22 00:42:00,
2013-05-21 20:47:00,73.0,70.3,29.95,South,180,5.4,5.4,91,0.00,,,0.00,meteobridge,2013-05-22 00:47:00,
2013-05-21 20:52:00,72.9,70.2,29.95,SE,135,3.1,4.5,91,0.00,,,0.00,meteobridge,2013-05-22 00:52:00,
2013-05-21 20:57:00,72.7,70.0,29.95,SE,135,6.0,6.0,91,0.00,,,0.00,meteobridge,2013-05-22 00:57:00,
2013-05-21 21:03:00,72.5,69.8,29.95,SE,135,5.4,8.3,91,0.00,,,0.00,meteobridge,2013-05-22 01:03:00,
2013-05-21 21:08:00,72.3,69.6,29.96,SE,135,6.9,8.3,91,0.00,,,0.00,meteobridge,2013-05-22 01:08:00,
2013-05-21 21:13:00,72.3,69.6,29.95,SE,135,6.0,8.3,91,0.00,,,0.00,meteobridge,2013-05-22 01:13:00,
2013-05-21 21:18:00,72.1,69.4,29.96,SSE,158,6.0,6.0,91,0.00,,,0.00,meteobridge,2013-05-22 01:18:00,
2013-05-21 21:23:00,72.0,69.3,29.96,ESE,113,4.5,5.4,91,0.00,,,0.00,meteobridge,2013-05-22 01:23:00,
2013-05-21 21:28:00,72.0,69.4,29.96,South,180,4.5,5.4,92,0.00,,,0.00,meteobridge,2013-05-22 01:28:00,
2013-05-21 21:34:00,71.8,69.3,29.97,SE,135,3.8,6.9,92,0.00,,,0.00,meteobridge,2013-05-22 01:34:00,
2013-05-21 21:39:00,71.8,69.6,29.97,SE,135,4.5,6.0,93,0.00,,,0.00,meteobridge,2013-05-22 01:39:00,
2013-05-21 21:44:00,71.6,69.4,29.97,South,180,5.4,5.4,93,0.00,,,0.00,meteobridge,2013-05-22 01:44:00,
2013-05-21 21:49:00,71.4,70.0,29.97,South,180,4.5,4.5,95,0.00,,,0.00,meteobridge,2013-05-22 01:49:00,
2013-05-21 21:54:00,71.2,69.8,29.98,SE,135,4.5,4.5,95,0.00,,,0.00,meteobridge,2013-05-22 01:54:00,
2013-05-21 21:59:00,71.2,69.8,29.98,South,180,5.4,5.4,95,0.00,,,0.00,meteobridge,2013-05-22 01:59:00,
2013-05-21 22:05:00,71.2,69.8,29.98,SE,135,3.1,3.8,95,0.00,,,0.00,meteobridge,2013-05-22 02:05:00,
2013-05-21 22:10:00,71.1,69.8,29.98,SSE,158,2.2,3.8,96,0.00,,,0.00,meteobridge,2013-05-22 02:10:00,
2013-05-21 22:15:00,70.9,69.6,29.98,SE,135,2.2,2.2,96,0.00,,,0.00,meteobridge,2013-05-22 02:15:00,
2013-05-21 22:20:00,70.9,69.6,29.98,South,180,0.7,4.5,96,0.00,,,0.00,meteobridge,2013-05-22 02:20:00,
2013-05-21 22:25:00,70.7,69.4,29.98,SE,135,0.7,2.2,96,0.00,,,0.00,meteobridge,2013-05-22 02:25:00,
2013-05-21 22:30:00,70.5,69.6,29.98,East,90,2.2,2.2,97,0.00,,,0.00,meteobridge,2013-05-22 02:30:00,
2013-05-21 22:36:00,70.5,69.6,29.98,South,180,1.6,3.1,97,0.00,,,0.00,meteobridge,2013-05-22 02:36:00,
2013-05-21 22:41:00,70.3,69.4,29.98,SW,225,0.0,2.2,97,0.00,,,0.00,meteobridge,2013-05-22 02:41:00,
2013-05-21 22:46:00,70.2,69.3,29.99,SE,135,0.7,0.7,97,0.00,,,0.00,meteobridge,2013-05-22 02:46:00,
2013-05-21 22:51:00,70.0,69.4,29.99,East,90,2.2,2.2,98,0.00,,,0.00,meteobridge,2013-05-22 02:51:00,
2013-05-21 22:56:00,70.0,69.4,29.99,East,90,2.2,3.1,98,0.00,,,0.00,meteobridge,2013-05-22 02:56:00,
2013-05-21 23:01:00,70.0,69.4,29.99,SE,135,1.6,1.6,98,0.00,,,0.00,meteobridge,2013-05-22 03:01:00,
2013-05-21 23:07:00,70.0,69.4,29.99,South,180,3.8,3.8,98,0.00,,,0.00,meteobridge,2013-05-22 03:07:00,
2013-05-21 23:12:00,70.0,69.4,29.99,SE,135,0.7,1.6,98,0.00,,,0.00,meteobridge,2013-05-22 03:12:00,
2013-05-21 23:17:00,69.8,69.3,29.99,SW,225,1.6,1.6,98,0.00,,,0.00,meteobridge,2013-05-22 03:17:00,
2013-05-21 23:22:00,69.8,69.3,30.00,SE,135,1.6,1.6,98,0.00,,,0.00,meteobridge,2013-05-22 03:22:00,
2013-05-21 23:27:00,69.8,69.3,29.99,SE,135,2.2,4.5,98,0.00,,,0.00,meteobridge,2013-05-22 03:27:00,
2013-05-21 23:32:00,69.8,69.3,30.00,East,90,3.1,4.5,98,0.00,,,0.00,meteobridge,2013-05-22 03:32:00,
2013-05-21 23:38:00,69.8,69.3,29.99,South,180,2.2,3.1,98,0.00,,,0.00,meteobridge,2013-05-22 03:38:00,
2013-05-21 23:43:00,69.8,69.3,30.00,SE,135,2.2,2.2,98,0.00,,,0.00,meteobridge,2013-05-22 03:43:00,
2013-05-21 23:48:00,69.6,69.3,30.00,SE,135,1.6,1.6,99,0.00,,,0.00,meteobridge,2013-05-22 03:48:00,
2013-05-21 23:53:00,69.6,69.3,30.00,East,90,3.1,5.4,99,0.00,,,0.00,meteobridge,2013-05-22 03:53:00,
2013-05-21 23:58:00,69.8,69.3,30.00,East,90,3.1,4.5,98,0.00,,,0.00,meteobridge,2013-05-22 03:58:00,